Back to catalog

STARLINK-34094

AliveCommunicationsVLEO
NORAD 63822·PAYLOAD·🇺🇸 United States

Launched May 4, 2025 from Cape Canaveral Space Force Station

Loading…

Next Passes (next 24 hours)

TLE

FreshSource: CelesTrak SupGP

Epoch: Sep 14, 2026, 20:50 UTC

1 63822C 25092U   26257.86854167 -.00002330  00000+0 -84382-4 0  2571
2 63822  43.0000 180.9508 0001325 265.1128 103.5586 15.27586348    15

Track STARLINK-34094 in real time with AllMySat

Download on the App Store